Location: Baix
(44.7118°N, 4.7648°E)
Time: 19:03:32
(UTC+00:00)

NOSS 3 (A) - Pass Details

Date: 07 August 2020
Orbit: 329 x 1623 km, 63.3° (Epoch: 05 March)

Event Time Altitude Azimuth Distance (km) Brightness Sun altitude
Exits shadow 02:55:49 47° 207° (SSW) 451 4.5 -15.4°
Maximum altitude 02:56:28 82° 128° (SE) 344 4.2 -15.3°
Drops below altitude 10° 02:59:19 10° 39° (NE) 1,355 8.7 -14.9°
Sets 03:01:29 0° 39° (NE) 2,310 10.3 -14.6°
